Location: *
(48.8489°N, 2.3218°E)
Time: 21:45:13
(UTC+00:00)

SL-16 R/B - Pass Details

Date: 23 August 2019
Orbit: 842 x 846 km, 71.0° (Epoch: 23 October)

Event Time Altitude Azimuth Distance (km) Brightness Sun altitude
Rises 21:48:53 0° 333° (NNW) 3,415 6.8 -23.9°
Reaches altitude 10° 21:51:23 10° 337° (NNW) 2,477 5.7 -24.1°
Maximum altitude 21:57:00 60° 57° (ENE) 965 2.4 -24.6°
Enters shadow 21:57:56 53° 98° (E) 1,037 2.4 -24.7°
